User: anonymous   Login
Location: Unspecified
(0.0000°N, 0.0000°E)
Time: 17:48:38
(UTC+00:00)
Language:

JY1SAT - Orbit

View from above orbital plane
View from above orbital plane
View from above satellite
View from above satellite

Ground track
Ground track

The orbit data is extracted from the following two-line orbital elements,

1 43803U 18099AX  20017.83306405  .00000108  00000-0  15018-4 0  9992
2 43803  97.7217  91.9014 0014626 343.2699  16.8038 14.95403616 61273
Epoch (UTC): 17 January 2020 19:59:36
Eccentricity: 0.0014626
inclination: 97.7217°
perigee height: 571 km
apogee height: 591 km
right ascension of ascending node: 91.9014°
argument of perigee: 343.2699°
revolutions per day: 14.95403616
mean anomaly at epoch: 16.8038°
orbit number at epoch: 6127

The dashed part of the orbit path shows where the satellite is in the earth's shadow,  

DLR